This is the latest recevied weather packets stored in our database for station/object IZ5MJO-13. If no packets are shown the sender has not sent any weather packets the latest 10 day(s).
| Time | Temp. | Humidity | Pressure | Rain* | Wind** | Luminosity | Snow |
|---|---|---|---|---|---|---|---|
| 1777415310 | 14.44° C | 53% | 1005.3 hPa | - | - | - | - |
| 1777414410 | 14.44° C | 53% | 1005.3 hPa | - | - | - | - |
| 1777413510 | 14.44° C | 53% | 1005.4 hPa | - | - | - | - |
| 1777412610 | 14.44° C | 52% | 1005.3 hPa | - | - | - | - |
| 1777411709 | 14.44° C | 50% | 1005.3 hPa | - | - | - | - |
| 1777410809 | 14.44° C | 48% | 1005.4 hPa | - | - | - | - |
| 1777409909 | 14.44° C | 47% | 1005.3 hPa | - | - | - | - |
| 1777409008 | 14.44° C | 48% | 1005.4 hPa | - | - | - | - |
| 1777408107 | 15° C | 49% | 1005.4 hPa | - | - | - | - |
| 1777407211 | 15° C | 45% | 1005.4 hPa | - | - | - | - |
| 1777406311 | 15° C | 47% | 1005.3 hPa | - | - | - | - |
| 1777405411 | 15.56° C | 43% | 1005.3 hPa | - | - | - | - |
| 1777404511 | 16.11° C | 42% | 1005 hPa | - | - | - | - |
| 1777403610 | 16.11° C | 37% | 1004.9 hPa | - | - | - | - |
| 1777402710 | 16.67° C | 36% | 1004.6 hPa | - | - | - | - |
| 1777401810 | 16.67° C | 36% | 1004.4 hPa | - | - | - | - |
| 1777400910 | 17.22° C | 36% | 1004.3 hPa | - | - | - | - |
| 1777400010 | 17.78° C | 36% | 1004.2 hPa | - | - | - | - |
| 1777399109 | 18.89° C | 36% | 1004.1 hPa | - | - | - | - |
| 1777398209 | 20° C | 37% | 1004.2 hPa | - | - | - | - |
| 1777397309 | 21.67° C | 35% | 1004 hPa | - | - | - | - |
| 1777396409 | 23.89° C | 34% | 1004 hPa | - | - | - | - |
| 1777395508 | 24.44° C | 34% | 1003.9 hPa | - | - | - | - |
| 1777394608 | 24.44° C | 34% | 1003.9 hPa | - | - | - | - |
| 1777393707 | 25.56° C | 34% | 1003.8 hPa | - | - | - | - |
* Rain since midnight (hover to see other rain measurements)
** Current wind speed in m/s (hover to see current wind gust speed)